UAL507 KPWM-KBTV

Flight info

Callsign UAL507
Flight time 0h 33m
Altitude 22000
Route HSKEL3 HSKEL GRNMT BTV
Aircraft A20N/M-SDE2E3FGHIRWXY/LB1

Departure

Time 2026-05-08 02:38
Airport Portland International Jetport (KPWM)

Arrival

Time 2026-05-08 03:11
Airport Patrick Leahy Burlington International Airport (KBTV)
Time Latitude Longitude Altitude Speed Heading
2026-05-08 01:49 43.64732 -70.31295 68 ft 0 kts 72°
2026-05-08 02:23 43.64731 -70.31300 86 ft 0 kts 72°
2026-05-08 02:24 43.64731 -70.31301 86 ft 1 kts 72°
2026-05-08 02:24 43.64725 -70.31326 73 ft 3 kts 72°
2026-05-08 02:24 43.64718 -70.31353 67 ft 3 kts 72°
2026-05-08 02:24 43.64717 -70.31357 67 ft 0 kts 71°
2026-05-08 02:27 43.64718 -70.31357 67 ft 1 kts 71°
2026-05-08 02:27 43.64715 -70.31352 68 ft 0 kts 110°
2026-05-08 02:27 43.64711 -70.31351 69 ft 1 kts 153°
2026-05-08 02:27 43.64689 -70.31364 68 ft 8 kts 204°
2026-05-08 02:28 43.64641 -70.31342 67 ft 10 kts 122°
2026-05-08 02:28 43.64615 -70.31266 66 ft 0 kts 110°
2026-05-08 02:28 43.64614 -70.31262 62 ft 4 kts 109°
2026-05-08 02:28 43.64597 -70.31104 68 ft 16 kts 93°
2026-05-08 02:29 43.64590 -70.30986 67 ft 14 kts 94°
2026-05-08 02:29 43.64580 -70.30829 64 ft 19 kts 95°
2026-05-08 02:29 43.64564 -70.30676 62 ft 11 kts 98°
2026-05-08 02:29 43.64558 -70.30603 64 ft 8 kts 94°
2026-05-08 02:30 43.64557 -70.30530 62 ft 13 kts 94°
2026-05-08 02:30 43.64549 -70.30373 52 ft 20 kts 96°
2026-05-08 02:30 43.64538 -70.30233 54 ft 6 kts 96°
2026-05-08 02:30 43.64531 -70.30138 53 ft 15 kts 95°
2026-05-08 02:31 43.64520 -70.29990 53 ft 8 kts 97°
2026-05-08 02:31 43.64494 -70.29925 51 ft 0 kts 154°
2026-05-08 02:33 43.64493 -70.29924 50 ft 1 kts 154°
2026-05-08 02:33 43.64464 -70.29919 49 ft 7 kts 181°
2026-05-08 02:34 43.64418 -70.29959 49 ft 10 kts 241°
2026-05-08 02:34 43.64414 -70.30034 49 ft 0 kts 277°
2026-05-08 02:37 43.64414 -70.30044 49 ft 12 kts 277°
2026-05-08 02:37 43.64447 -70.30530 50 ft 86 kts 275°
2026-05-08 02:37 43.64521 -70.31608 98 ft 137 kts 276°
2026-05-08 02:38 43.64610 -70.32884 809 ft 131 kts 276°
2026-05-08 02:38 43.64706 -70.34156 1571 ft 135 kts 279°
2026-05-08 02:38 43.64802 -70.35462 2108 ft 144 kts 277°
2026-05-08 02:38 43.64894 -70.36929 2591 ft 160 kts 277°
2026-05-08 02:39 43.65092 -70.38520 3132 ft 177 kts 281°
2026-05-08 02:39 43.65310 -70.40248 3692 ft 194 kts 279°
2026-05-08 02:39 43.65553 -70.42197 4255 ft 216 kts 280°
2026-05-08 02:39 43.65768 -70.44339 4857 ft 236 kts 278°
2026-05-08 02:40 43.65972 -70.46666 5552 ft 249 kts 278°
2026-05-08 02:40 43.66249 -70.49007 6572 ft 249 kts 282°
2026-05-08 02:40 43.66620 -70.51362 7519 ft 251 kts 283°
2026-05-08 02:40 43.67015 -70.53680 8612 ft 249 kts 284°
2026-05-08 02:41 43.67417 -70.55996 9776 ft 243 kts 281°
2026-05-08 02:41 43.67776 -70.58270 10430 ft 257 kts 283°
2026-05-08 02:41 43.68253 -70.60731 10823 ft 277 kts 284°
2026-05-08 02:41 43.68793 -70.63399 11208 ft 296 kts 284°
2026-05-08 02:42 43.69375 -70.66136 11979 ft 300 kts 284°
2026-05-08 02:42 43.69961 -70.68920 12900 ft 301 kts 283°
2026-05-08 02:42 43.70532 -70.71695 13732 ft 304 kts 282°
2026-05-08 02:42 43.71106 -70.74539 14478 ft 307 kts 281°
2026-05-08 02:43 43.71647 -70.77373 15240 ft 307 kts 276°
2026-05-08 02:43 43.71822 -70.80309 16021 ft 304 kts 265°
2026-05-08 02:43 43.71523 -70.83209 16745 ft 305 kts 254°
2026-05-08 02:43 43.70797 -70.85981 17516 ft 307 kts 248°
2026-05-08 02:44 43.70003 -70.88701 18249 ft 308 kts 248°
2026-05-08 02:44 43.69206 -70.91461 18941 ft 309 kts 248°
2026-05-08 02:44 43.68419 -70.94198 19629 ft 310 kts 248°
2026-05-08 02:44 43.67619 -70.96978 20285 ft 312 kts 248°
2026-05-08 02:45 43.66812 -70.99775 20939 ft 313 kts 248°
2026-05-08 02:45 43.66164 -71.02675 21531 ft 317 kts 256°
2026-05-08 02:45 43.65909 -71.05692 21740 ft 322 kts 264°
2026-05-08 02:45 43.66083 -71.08812 21776 ft 328 kts 274°
2026-05-08 02:46 43.66625 -71.11912 21776 ft 332 kts 277°
2026-05-08 02:46 43.67189 -71.14965 21781 ft 331 kts 277°
2026-05-08 02:46 43.67749 -71.18045 21784 ft 330 kts 276°
2026-05-08 02:46 43.68307 -71.21145 21782 ft 330 kts 276°
2026-05-08 02:47 43.68851 -71.24190 21783 ft 331 kts 276°
2026-05-08 02:47 43.69401 -71.27278 21785 ft 330 kts 276°
2026-05-08 02:47 43.69950 -71.30369 21785 ft 330 kts 276°
2026-05-08 02:47 43.70499 -71.33465 21784 ft 330 kts 276°
2026-05-08 02:48 43.71041 -71.36527 21785 ft 330 kts 276°
2026-05-08 02:48 43.71589 -71.39621 21783 ft 330 kts 276°
2026-05-08 02:48 43.72125 -71.42659 21791 ft 330 kts 276°
2026-05-08 02:48 43.72674 -71.45777 21787 ft 331 kts 277°
2026-05-08 02:49 43.73219 -71.48877 21788 ft 331 kts 277°
2026-05-08 02:49 43.73758 -71.51943 21787 ft 331 kts 277°
2026-05-08 02:49 43.74301 -71.55034 21787 ft 331 kts 276°
2026-05-08 02:49 43.74845 -71.58140 21789 ft 331 kts 276°
2026-05-08 02:50 43.75388 -71.61243 21788 ft 330 kts 276°
2026-05-08 02:50 43.75921 -71.64300 21789 ft 330 kts 276°
2026-05-08 02:50 43.76462 -71.67404 21787 ft 331 kts 276°
2026-05-08 02:50 43.77003 -71.70514 21788 ft 331 kts 276°
2026-05-08 02:51 43.77536 -71.73584 21788 ft 331 kts 276°
2026-05-08 02:51 43.78076 -71.76698 21812 ft 331 kts 276°
2026-05-08 02:51 43.78603 -71.79748 21787 ft 330 kts 276°
2026-05-08 02:51 43.79138 -71.82842 21793 ft 330 kts 276°
2026-05-08 02:52 43.79674 -71.85949 21789 ft 330 kts 277°
2026-05-08 02:52 43.80206 -71.89042 21789 ft 330 kts 277°
2026-05-08 02:52 43.80732 -71.92103 21792 ft 330 kts 277°
2026-05-08 02:52 43.81263 -71.95196 21789 ft 329 kts 276°
2026-05-08 02:53 43.81794 -71.98295 21799 ft 329 kts 276°
2026-05-08 02:53 43.82322 -72.01387 21795 ft 330 kts 276°
2026-05-08 02:53 43.82846 -72.04457 21797 ft 330 kts 276°
2026-05-08 02:53 43.83376 -72.07565 21796 ft 330 kts 276°
2026-05-08 02:54 43.83899 -72.10636 21837 ft 330 kts 276°
2026-05-08 02:54 43.84426 -72.13739 21800 ft 329 kts 277°
2026-05-08 02:54 43.84949 -72.16828 21797 ft 329 kts 277°
2026-05-08 02:54 43.85471 -72.19916 21799 ft 329 kts 277°
2026-05-08 02:55 43.85989 -72.22978 21802 ft 328 kts 276°
2026-05-08 02:55 43.87032 -72.29159 21806 ft 328 kts 276°
2026-05-08 02:55 43.87544 -72.32210 21778 ft 329 kts 276°
2026-05-08 02:56 43.88064 -72.35317 21546 ft 329 kts 276°
2026-05-08 02:56 43.88581 -72.38407 21299 ft 328 kts 277°
2026-05-08 02:56 43.89095 -72.41482 21018 ft 325 kts 277°
2026-05-08 02:56 43.89600 -72.44505 20585 ft 327 kts 277°
2026-05-08 02:57 43.90117 -72.47645 19721 ft 337 kts 277°
2026-05-08 02:57 43.90636 -72.50793 19029 ft 338 kts 278°
2026-05-08 02:57 43.91160 -72.53949 18642 ft 330 kts 278°
2026-05-08 02:57 43.91669 -72.57001 18337 ft 320 kts 278°
2026-05-08 02:58 43.92169 -72.60024 17466 ft 324 kts 278°
2026-05-08 02:58 43.92667 -72.63064 16689 ft 327 kts 279°
2026-05-08 02:58 43.93171 -72.66127 16241 ft 320 kts 279°
2026-05-08 02:58 43.93656 -72.69059 15976 ft 310 kts 279°
2026-05-08 02:59 43.94140 -72.72007 15427 ft 316 kts 279°
2026-05-08 02:59 43.94632 -72.75035 14534 ft 325 kts 279°
2026-05-08 02:59 43.95132 -72.78108 13947 ft 323 kts 279°
2026-05-08 02:59 43.95618 -72.81073 13660 ft 313 kts 280°
2026-05-08 03:00 43.96096 -72.83999 13073 ft 310 kts 280°
2026-05-08 03:00 43.96576 -72.86958 12249 ft 314 kts 281°
2026-05-08 03:00 43.97047 -72.89865 11798 ft 308 kts 281°
2026-05-08 03:00 43.97742 -72.92634 11524 ft 301 kts 296°
2026-05-08 03:01 43.99085 -72.94930 11093 ft 316 kts 315°
2026-05-08 03:01 44.01029 -72.96504 10204 ft 340 kts 336°
2026-05-08 03:01 44.03401 -72.96949 9778 ft 345 kts 358°
2026-05-08 03:01 44.05755 -72.96565 9613 ft 332 kts
2026-05-08 03:02 44.07963 -72.96066 9434 ft 315 kts
2026-05-08 03:02 44.10069 -72.95590 9251 ft 296 kts
2026-05-08 03:02 44.12064 -72.95175 8891 ft 285 kts
2026-05-08 03:02 44.13994 -72.94809 8346 ft 281 kts
2026-05-08 03:03 44.15928 -72.94462 7737 ft 280 kts
2026-05-08 03:03 44.17886 -72.94121 7103 ft 281 kts
2026-05-08 03:03 44.19795 -72.93784 6709 ft 272 kts
2026-05-08 03:03 44.21629 -72.93456 6341 ft 263 kts
2026-05-08 03:04 44.23437 -72.93136 5891 ft 264 kts
2026-05-08 03:04 44.25305 -72.92814 5116 ft 274 kts
2026-05-08 03:04 44.27201 -72.92483 4794 ft 271 kts
2026-05-08 03:04 44.29014 -72.92158 4697 ft 260 kts
2026-05-08 03:05 44.30768 -72.91844 4669 ft 245 kts
2026-05-08 03:05 44.32378 -72.91980 4651 ft 222 kts 335°
2026-05-08 03:05 44.33566 -72.93118 4533 ft 201 kts 309°
2026-05-08 03:05 44.34457 -72.94566 4430 ft 189 kts 308°
2026-05-08 03:06 44.35278 -72.95918 4153 ft 183 kts 308°
2026-05-08 03:06 44.36102 -72.97257 3845 ft 180 kts 308°
2026-05-08 03:06 44.36910 -72.98562 3569 ft 170 kts 309°
2026-05-08 03:06 44.37636 -72.99735 3335 ft 151 kts 308°
2026-05-08 03:07 44.38289 -73.00787 3112 ft 139 kts 308°
2026-05-08 03:07 44.38904 -73.01778 2919 ft 133 kts 307°
2026-05-08 03:07 44.39511 -73.02762 2712 ft 133 kts 309°
2026-05-08 03:07 44.40121 -73.03746 2521 ft 132 kts 308°
2026-05-08 03:08 44.40714 -73.04702 2317 ft 128 kts 308°
2026-05-08 03:08 44.41317 -73.05677 2132 ft 134 kts 309°
2026-05-08 03:08 44.41901 -73.06622 1943 ft 131 kts 309°
2026-05-08 03:08 44.42501 -73.07592 1751 ft 130 kts 308°
2026-05-08 03:09 44.43084 -73.08531 1565 ft 128 kts 307°
2026-05-08 03:09 44.43660 -73.09463 1360 ft 127 kts 309°
2026-05-08 03:09 44.44261 -73.10436 1166 ft 135 kts 310°
2026-05-08 03:09 44.44875 -73.11428 957 ft 133 kts 309°
2026-05-08 03:10 44.45461 -73.12377 757 ft 127 kts 311°
2026-05-08 03:10 44.46061 -73.13357 554 ft 134 kts 313°
2026-05-08 03:10 44.46643 -73.14301 390 ft 122 kts 313°
2026-05-08 03:10 44.47200 -73.15180 353 ft 110 kts 311°
2026-05-08 03:11 44.47599 -73.15825 348 ft 69 kts 311°
2026-05-08 03:11 44.47817 -73.16175 348 ft 39 kts 311°
2026-05-08 03:11 44.47941 -73.16418 348 ft 26 kts 272°
2026-05-08 03:11 44.47839 -73.16510 344 ft 18 kts 138°
2026-05-08 03:12 44.47753 -73.16375 347 ft 20 kts 130°
2026-05-08 03:12 44.47651 -73.16204 340 ft 25 kts 130°
2026-05-08 03:12 44.47542 -73.16025 338 ft 20 kts 130°
2026-05-08 03:12 44.47447 -73.15874 340 ft 22 kts 133°
2026-05-08 03:13 44.47342 -73.15707 336 ft 24 kts 131°
2026-05-08 03:13 44.47255 -73.15565 345 ft 19 kts 130°
2026-05-08 03:13 44.47194 -73.15469 350 ft 12 kts 131°
2026-05-08 03:13 44.47160 -73.15428 345 ft 7 kts 148°
2026-05-08 03:14 44.47091 -73.15425 352 ft 4 kts 194°
2026-05-08 03:14 44.47067 -73.15437 345 ft 3 kts 201°
2026-05-08 03:14 44.47060 -73.15441 351 ft 0 kts 201°